Location: Newark
(25.3833°N, 97.4000°E)
Time: 01:58:13
(UTC+00:00)

AO-73 - Visible Passes

Search period start: 27 February 2021 00:00
Search period end: 09 March 2021 00:00
Orbit: 581 x 663 km, 97.6° (Epoch: 26 February)

Date Brightness Start Highest point End Pass type
(mag) Time Alt. Az. Time Alt. Az. Time Alt. Az.
27 Feb ? 21:47:29 10° NE 21:50:29 20° E 21:53:30 10° SE visible
27 Feb ? 23:23:31 10° NNW 23:26:30 20° WNW 23:29:29 10° WSW visible
28 Feb ? 22:04:39 10° NNE 22:08:24 34° E 22:12:08 10° SSE visible
01 Mar ? 22:22:12 10° NNE 22:26:16 61° E 22:30:20 10° S visible
02 Mar ? 22:40:01 10° N 22:44:06 74° WNW 22:48:13 10° SSW visible
03 Mar ? 22:58:03 10° N 23:01:54 40° WNW 23:05:47 10° SW visible
04 Mar ? 21:40:59 10° ENE 21:43:37 16° E 21:46:15 10° SE visible
04 Mar ? 23:16:24 10° NNW 23:19:41 23° WNW 23:22:58 10° SW visible
05 Mar ? 21:57:58 10° NE 22:01:31 28° E 22:05:06 10° SSE visible
06 Mar ? 22:15:24 10° NNE 22:19:24 50° E 22:23:25 10° S visible
07 Mar ? 22:33:07 10° N 22:37:14 89° W 22:41:24 10° SSW visible
08 Mar ? 22:51:04 10° N 22:55:03 49° WNW 22:59:05 10° SSW visible
